Вернуться в каталог

STARLINK-3613

АктивенСвязьVLEO
NORAD 51810·PAYLOAD·🇺🇸 United States

Запущен Feb 25, 2022 с Vandenberg Space Force Base

Loading…

Ближайшие Пролёты (ближайшие 24 часа)

TLE

СвежийSource: CelesTrak SupGP

Эпоха: Sep 15, 2026, 02:05 UTC

1 51810C 22017AU  26258.08729167 -.00011585  00000+0 -34252-3 0  2588
2 51810  53.1596 188.7121 0001341  84.5563  92.2605 15.34375782    14

Отслеживайте STARLINK-3613 в реальном времени с AllMySat

Download on the App Store